GFSFLT1_prec_precacc_276.txt.gz
Total_Precipitation_Accumulation
0.00 0.00 0.02 0.03 0.03 0.26 0.74 0.92 1.16 1.30 1.14 1.06 0.89 0.81 0.73 0.72 0.66 0.78 0.87 0.86 0.83 0.96 0.87 0.83 1.07 1.39 1.10 1.04 0.93 1.00 0.98 1.01
0.00 0.01 0.02 0.04 0.10 0.40 0.74 0.90 1.20 1.16 0.66 0.53 0.57 0.57 0.45 0.60 0.64 0.87 1.07 1.25 1.17 1.03 0.89 0.87 0.98 1.02 1.03 1.32 1.58 1.76 1.62 1.49
0.01 0.03 0.06 0.12 0.24 0.52 0.62 0.49 0.35 0.21 0.18 0.29 0.42 0.51 0.52 0.48 0.58 0.80 0.89 1.36 1.29 0.97 0.92 0.90 1.03 1.14 1.07 1.00 1.19 1.34 1.24 1.52
0.02 0.06 0.13 0.17 0.15 0.16 0.14 0.11 0.09 0.13 0.16 0.38 0.61 0.91 0.84 0.69 0.60 0.60 0.76 1.12 1.48 1.40 1.18 1.01 0.98 1.41 1.67 1.44 1.38 1.56 1.39 1.51
0.03 0.02 0.02 0.01 0.03 0.14 0.15 0.15 0.17 0.26 0.30 0.40 0.54 0.54 0.42 0.28 0.31 0.41 0.51 1.05 1.65 1.46 1.63 1.70 1.53 1.28 1.47 1.85 1.93 1.78 2.10 1.99
0.00 0.00 0.01 0.06 0.09 0.16 0.18 0.17 0.21 0.32 0.38 0.43 0.76 0.83 0.86 0.88 1.03 1.18 1.24 1.41 1.81 1.94 1.87 2.36 2.24 2.02 1.70 2.07 2.87 3.34 3.26 3.69
0.01 0.03 0.07 0.09 0.13 0.18 0.15 0.27 0.43 0.74 0.99 1.15 1.32 1.55 1.61 1.60 1.58 1.59 1.69 1.87 2.27 2.56 2.73 2.63 3.12 3.16 2.86 2.62 2.98 3.80 4.22 3.99
0.09 0.10 0.11 0.15 0.15 0.18 0.42 0.90 1.26 1.28 1.27 1.20 1.17 1.27 1.36 1.03 0.87 0.86 0.90 1.17 1.30 1.56 1.85 1.97 2.13 2.48 2.51 3.00 3.39 3.18 3.05 3.19
0.18 0.21 0.22 0.24 0.25 0.41 0.91 0.94 0.83 0.73 0.79 0.85 1.00 0.97 1.09 0.94 0.85 1.12 1.06 1.15 1.18 1.55 1.77 2.10 2.24 2.77 3.23 2.80 2.55 2.87 3.16 3.16
0.34 0.31 0.30 0.34 0.37 0.41 0.42 0.40 0.48 0.49 0.49 0.58 0.91 1.12 1.06 1.27 1.67 2.09 2.07 1.70 1.73 1.93 2.52 2.96 3.44 4.18 4.36 4.27 3.49 2.77 3.03 2.71
0.46 0.58 0.58 0.42 0.40 0.34 0.35 0.41 0.44 0.47 0.51 0.68 0.94 1.32 1.64 1.82 1.98 2.13 2.36 2.65 2.57 2.72 2.96 3.12 3.40 3.21 3.33 3.06 2.86 2.19 1.71 1.93
0.64 0.99 0.99 0.73 0.63 0.54 0.52 0.62 0.67 0.76 0.95 1.05 1.36 1.85 1.93 2.40 2.66 2.56 2.72 3.08 2.97 2.46 2.03 2.11 2.23 2.55 2.73 2.28 2.02 2.00 1.85 1.69
0.61 0.58 0.83 1.23 1.14 0.78 0.66 0.74 0.99 1.53 2.01 2.21 2.21 2.54 2.78 2.62 2.74 2.56 2.16 2.92 3.00 2.71 2.64 2.28 2.56 2.31 2.07 2.00 1.88 1.75 1.98 2.03
1.17 1.06 0.84 0.70 1.04 1.16 0.91 1.04 1.79 2.36 2.50 2.67 2.33 2.52 2.62 2.90 2.72 2.52 2.32 2.15 2.71 2.73 2.81 2.71 2.05 2.25 1.87 1.69 1.78 1.97 1.84 2.19
1.15 1.19 1.35 1.36 0.95 1.14 1.20 1.22 1.83 2.14 1.63 1.60 1.88 1.97 1.80 1.80 1.68 1.83 2.00 2.03 1.89 1.81 1.94 2.01 1.87 1.51 1.66 1.58 1.53 1.40 1.46 1.37
0.99 1.52 1.16 1.05 1.16 1.10 1.04 1.27 1.40 1.67 1.59 1.44 1.45 1.66 1.72 1.23 1.07 1.13 1.55 1.57 1.62 1.82 1.85 1.90 2.09 1.87 1.65 1.63 1.62 1.41 1.37 1.31
0.70 0.97 1.45 0.86 0.70 0.78 0.80 1.03 1.24 1.19 1.28 1.23 1.23 1.11 1.12 1.13 1.08 0.89 0.96 1.21 1.31 1.42 1.65 2.06 2.33 2.47 2.42 1.86 1.55 1.45 1.37 1.20
0.47 0.49 1.07 1.08 0.81 0.79 0.72 0.90 1.06 1.00 1.12 1.19 1.04 0.92 0.89 0.89 0.78 0.68 0.62 0.78 0.98 1.25 1.45 1.48 1.57 1.87 2.40 2.03 1.82 1.38 1.28 1.33
0.49 0.58 0.81 1.06 0.75 0.63 0.62 0.70 0.96 0.95 0.89 0.94 0.95 0.82 0.74 0.72 0.57 0.54 0.54 0.59 0.61 0.54 0.57 0.62 0.67 0.88 1.37 1.44 1.63 1.42 1.46 1.49

GFSFLT1_prec_precacc_279.txt.gz
Total_Precipitation_Accumulation
0.00 0.00 0.02 0.03 0.03 0.26 0.74 0.92 1.16 1.30 1.14 1.06 0.89 0.81 0.73 0.72 0.66 0.78 0.87 0.86 0.83 0.96 0.87 0.83 1.07 1.39 1.10 1.04 0.93 1.00 0.98 1.01
0.00 0.01 0.02 0.04 0.10 0.40 0.74 0.90 1.20 1.16 0.66 0.53 0.57 0.57 0.45 0.60 0.64 0.87 1.07 1.25 1.17 1.03 0.89 0.87 0.98 1.02 1.03 1.32 1.58 1.76 1.62 1.49
0.01 0.03 0.06 0.12 0.24 0.52 0.62 0.49 0.35 0.21 0.18 0.29 0.42 0.51 0.52 0.48 0.58 0.80 0.89 1.36 1.29 0.97 0.92 0.90 1.03 1.14 1.07 1.00 1.19 1.34 1.24 1.52
0.02 0.06 0.13 0.17 0.15 0.16 0.14 0.11 0.09 0.13 0.16 0.38 0.61 0.91 0.84 0.69 0.60 0.60 0.76 1.12 1.48 1.40 1.18 1.01 0.98 1.41 1.67 1.44 1.38 1.56 1.39 1.51
0.03 0.02 0.02 0.01 0.03 0.14 0.15 0.15 0.17 0.26 0.30 0.40 0.54 0.54 0.42 0.28 0.31 0.41 0.51 1.05 1.65 1.46 1.63 1.71 1.53 1.29 1.47 1.85 1.93 1.78 2.10 1.99
0.00 0.00 0.01 0.06 0.09 0.16 0.18 0.17 0.21 0.32 0.38 0.43 0.76 0.83 0.86 0.88 1.03 1.18 1.24 1.41 1.81 1.94 1.87 2.36 2.24 2.03 1.70 2.07 2.87 3.34 3.26 3.69
0.01 0.03 0.07 0.09 0.13 0.18 0.15 0.27 0.43 0.74 0.99 1.15 1.32 1.55 1.61 1.60 1.59 1.59 1.70 1.87 2.27 2.56 2.73 2.64 3.13 3.17 2.87 2.62 2.99 3.82 4.25 4.02
0.09 0.10 0.11 0.15 0.15 0.18 0.42 0.90 1.26 1.28 1.28 1.23 1.19 1.28 1.37 1.03 0.88 0.87 0.92 1.19 1.31 1.57 1.87 2.02 2.22 2.52 2.52 3.02 3.46 3.28 3.26 3.68
0.18 0.21 0.22 0.24 0.25 0.41 0.91 0.94 0.83 0.73 0.80 0.88 1.04 1.02 1.14 0.96 0.86 1.13 1.08 1.19 1.21 1.59 1.82 2.16 2.31 2.85 3.31 3.18 3.20 3.60 4.04 4.02
0.34 0.31 0.30 0.34 0.37 0.41 0.42 0.40 0.50 0.55 0.54 0.67 0.99 1.19 1.18 1.41 1.84 2.27 2.26 1.89 1.90 2.11 2.76 3.17 3.70 4.39 4.72 5.19 4.72 3.87 4.19 3.93
0.46 0.58 0.58 0.42 0.40 0.34 0.35 0.41 0.45 0.51 0.56 0.79 1.05 1.43 1.78 1.99 2.15 2.37 2.65 2.97 2.86 2.96 3.22 3.44 3.65 3.37 3.46 3.26 3.13 2.49 2.03 2.24
0.64 0.99 0.99 0.73 0.63 0.54 0.52 0.62 0.68 0.77 0.99 1.16 1.53 2.04 2.10 2.55 2.76 2.65 2.84 3.24 3.18 2.70 2.26 2.31 2.34 2.63 2.80 2.36 2.09 2.05 1.85 1.69
0.61 0.58 0.83 1.23 1.14 0.78 0.66 0.74 0.99 1.54 2.03 2.34 2.35 2.66 2.92 2.78 2.90 2.70 2.31 3.02 3.11 2.83 2.75 2.34 2.59 2.31 2.07 2.01 1.89 1.75 1.98 2.03
1.17 1.06 0.84 0.70 1.04 1.16 0.91 1.04 1.80 2.37 2.51 2.72 2.41 2.68 2.75 2.97 2.77 2.63 2.45 2.25 2.76 2.74 2.81 2.72 2.05 2.25 1.87 1.69 1.78 1.97 1.84 2.19
1.15 1.19 1.35 1.36 0.95 1.14 1.20 1.22 1.83 2.14 1.64 1.63 1.92 2.00 1.84 1.83 1.69 1.84 2.03 2.05 1.94 1.85 2.00 2.10 1.98 1.58 1.71 1.61 1.53 1.40 1.46 1.37
0.99 1.52 1.16 1.05 1.16 1.10 1.04 1.28 1.41 1.68 1.61 1.48 1.51 1.76 1.84 1.37 1.25 1.28 1.66 1.63 1.66 1.86 1.89 1.95 2.18 1.97 1.72 1.68 1.64 1.41 1.37 1.31
0.70 0.97 1.45 0.86 0.70 0.78 0.81 1.04 1.24 1.20 1.31 1.27 1.26 1.17 1.18 1.20 1.16 1.02 1.09 1.34 1.45 1.54 1.75 2.15 2.41 2.55 2.49 1.91 1.56 1.46 1.37 1.20
0.47 0.49 1.07 1.08 0.81 0.79 0.72 0.90 1.06 1.02 1.14 1.21 1.07 0.96 0.93 0.95 0.93 0.90 0.86 1.00 1.15 1.39 1.57 1.59 1.68 1.95 2.46 2.08 1.85 1.39 1.28 1.33
0.49 0.58 0.81 1.06 0.75 0.63 0.62 0.70 0.97 0.96 0.91 0.97 1.00 0.89 0.82 0.87 0.80 0.79 0.77 0.77 0.76 0.68 0.67 0.68 0.69 0.88 1.38 1.45 1.64 1.42 1.46 1.49

GFSFLT1_prec_precacc_282.txt.gz
Total_Precipitation_Accumulation
0.00 0.00 0.02 0.03 0.03 0.26 0.74 0.92 1.16 1.30 1.16 1.07 0.89 0.81 0.73 0.72 0.66 0.78 0.87 0.86 0.83 0.96 0.87 0.83 1.07 1.39 1.10 1.04 0.93 1.00 0.98 1.01
0.00 0.01 0.02 0.04 0.10 0.40 0.74 0.90 1.20 1.16 0.66 0.53 0.57 0.57 0.46 0.61 0.64 0.87 1.07 1.25 1.17 1.03 0.89 0.87 0.98 1.02 1.03 1.32 1.58 1.76 1.62 1.49
0.01 0.03 0.06 0.12 0.24 0.52 0.62 0.49 0.35 0.21 0.18 0.29 0.42 0.51 0.52 0.49 0.59 0.80 0.89 1.36 1.29 0.97 0.92 0.90 1.03 1.14 1.07 1.00 1.19 1.34 1.24 1.52
0.02 0.06 0.13 0.17 0.15 0.16 0.14 0.11 0.09 0.13 0.16 0.38 0.61 0.91 0.84 0.69 0.60 0.60 0.76 1.12 1.48 1.40 1.18 1.01 0.98 1.41 1.67 1.44 1.38 1.56 1.39 1.51
0.03 0.02 0.02 0.01 0.03 0.14 0.15 0.15 0.17 0.26 0.30 0.40 0.55 0.54 0.43 0.28 0.31 0.41 0.51 1.05 1.65 1.46 1.63 1.71 1.54 1.29 1.47 1.85 1.93 1.78 2.10 2.00
0.00 0.00 0.01 0.06 0.09 0.16 0.18 0.17 0.21 0.32 0.38 0.43 0.76 0.84 0.87 0.88 1.03 1.18 1.24 1.42 1.82 1.94 1.87 2.36 2.25 2.03 1.71 2.07 2.87 3.34 3.27 3.72
0.01 0.03 0.07 0.09 0.13 0.18 0.15 0.27 0.43 0.74 0.99 1.16 1.32 1.56 1.62 1.60 1.59 1.61 1.75 1.90 2.31 2.59 2.74 2.66 3.14 3.19 2.89 2.64 3.00 3.83 4.26 4.03
0.09 0.10 0.11 0.15 0.15 0.18 0.42 0.90 1.26 1.28 1.28 1.23 1.20 1.31 1.40 1.06 0.90 0.92 1.01 1.39 1.46 1.67 1.89 2.04 2.26 2.57 2.58 3.05 3.49 3.31 3.28 3.73
0.18 0.21 0.22 0.24 0.25 0.41 0.91 0.94 0.83 0.74 0.80 0.88 1.05 1.06 1.18 1.05 0.95 1.30 1.25 1.43 1.47 1.84 2.04 2.31 2.39 2.89 3.37 3.24 3.28 3.64 4.08 4.11
0.34 0.31 0.30 0.34 0.37 0.41 0.42 0.40 0.50 0.55 0.54 0.67 0.99 1.22 1.25 1.53 2.01 2.50 2.50 2.16 2.29 2.51 3.17 3.61 4.13 4.80 5.10 5.48 4.96 4.04 4.31 4.04
0.46 0.58 0.58 0.42 0.40 0.34 0.35 0.41 0.45 0.52 0.56 0.79 1.06 1.51 1.88 2.16 2.30 2.50 2.81 3.13 3.17 3.32 3.59 4.00 4.37 4.02 4.01 3.78 3.56 2.79 2.20 2.34
0.64 0.99 0.99 0.73 0.63 0.54 0.52 0.62 0.68 0.78 0.99 1.16 1.54 2.08 2.14 2.60 2.82 2.76 2.99 3.42 3.38 2.98 2.50 2.71 2.92 3.16 3.47 2.99 2.67 2.70 2.24 1.87
0.61 0.58 0.83 1.23 1.14 0.78 0.66 0.74 1.00 1.56 2.03 2.36 2.37 2.69 2.94 2.79 2.94 2.79 2.49 3.45 3.61 3.27 3.14 2.73 3.15 2.91 2.46 2.32 2.22 2.13 2.17 2.10
1.17 1.06 0.84 0.70 1.04 1.16 0.91 1.04 1.81 2.38 2.52 2.73 2.44 2.72 2.77 2.98 2.77 2.63 2.47 2.32 2.90 2.90 2.97 2.89 2.28 2.54 2.18 1.90 1.90 2.07 1.90 2.19
1.15 1.19 1.35 1.36 0.95 1.14 1.20 1.22 1.85 2.15 1.65 1.64 1.94 2.04 1.88 1.86 1.70 1.85 2.03 2.07 1.96 1.90 2.07 2.17 2.04 1.64 1.75 1.64 1.57 1.42 1.47 1.38
0.99 1.52 1.16 1.05 1.16 1.10 1.04 1.28 1.42 1.69 1.62 1.50 1.54 1.80 1.88 1.42 1.27 1.28 1.67 1.66 1.71 1.92 1.98 2.06 2.28 2.05 1.84 1.80 1.75 1.49 1.44 1.37
0.70 0.97 1.45 0.86 0.70 0.78 0.81 1.04 1.24 1.20 1.32 1.30 1.31 1.21 1.23 1.26 1.23 1.04 1.11 1.40 1.56 1.70 1.95 2.37 2.63 2.75 2.68 2.10 1.75 1.62 1.49 1.27
0.47 0.49 1.07 1.08 0.81 0.79 0.72 0.91 1.06 1.02 1.16 1.24 1.12 1.00 0.98 1.03 0.98 0.93 0.91 1.08 1.26 1.50 1.70 1.73 1.81 2.09 2.56 2.15 1.89 1.42 1.30 1.33
0.49 0.58 0.81 1.07 0.75 0.63 0.62 0.70 0.97 0.96 0.93 1.00 1.06 0.95 0.88 0.94 0.86 0.86 0.83 0.86 0.89 0.83 0.82 0.84 0.86 1.01 1.45 1.49 1.66 1.43 1.47 1.49

GFSFLT1_prec_precacc_285.txt.gz
Total_Precipitation_Accumulation
0.00 0.00 0.02 0.03 0.03 0.26 0.74 0.92 1.16 1.32 1.19 1.12 1.00 1.04 0.96 0.87 0.78 0.86 0.92 0.88 0.83 0.96 0.87 0.83 1.08 1.39 1.10 1.04 0.93 1.00 0.98 1.01
0.00 0.01 0.02 0.04 0.10 0.40 0.74 0.90 1.20 1.16 0.66 0.54 0.58 0.60 0.51 0.65 0.66 0.89 1.12 1.32 1.19 1.03 0.89 0.87 0.99 1.02 1.04 1.32 1.58 1.76 1.62 1.49
0.01 0.03 0.06 0.12 0.24 0.52 0.62 0.49 0.35 0.21 0.18 0.29 0.42 0.52 0.55 0.51 0.61 0.81 0.89 1.37 1.31 1.00 0.92 0.90 1.03 1.14 1.07 1.00 1.19 1.35 1.24 1.52
0.02 0.06 0.13 0.17 0.15 0.16 0.14 0.11 0.09 0.13 0.16 0.38 0.61 0.92 0.85 0.71 0.63 0.63 0.77 1.14 1.50 1.42 1.19 1.01 0.98 1.41 1.67 1.44 1.38 1.57 1.41 1.52
0.03 0.02 0.02 0.01 0.03 0.14 0.15 0.15 0.17 0.26 0.30 0.40 0.55 0.54 0.43 0.28 0.31 0.43 0.54 1.11 1.68 1.48 1.70 1.76 1.55 1.30 1.48 1.85 1.93 1.78 2.13 2.03
0.00 0.00 0.01 0.06 0.09 0.16 0.18 0.17 0.21 0.32 0.38 0.43 0.76 0.84 0.87 0.88 1.03 1.18 1.25 1.48 1.93 2.08 2.13 2.68 2.48 2.13 1.72 2.08 2.88 3.35 3.27 3.74
0.01 0.03 0.07 0.09 0.13 0.18 0.15 0.27 0.43 0.74 0.99 1.16 1.32 1.56 1.62 1.60 1.59 1.61 1.76 1.94 2.40 2.80 2.93 2.82 3.31 3.35 2.98 2.67 3.02 3.84 4.29 4.05
0.09 0.10 0.11 0.15 0.15 0.18 0.42 0.90 1.26 1.28 1.28 1.23 1.20 1.31 1.40 1.06 0.90 0.93 1.04 1.45 1.59 1.84 2.09 2.24 2.46 2.77 2.80 3.27 3.62 3.40 3.34 3.78
0.18 0.21 0.22 0.24 0.25 0.41 0.91 0.94 0.83 0.74 0.80 0.88 1.05 1.06 1.19 1.05 0.95 1.31 1.27 1.47 1.61 2.05 2.28 2.62 2.74 3.28 3.76 3.60 3.55 3.88 4.24 4.22
0.34 0.31 0.30 0.34 0.37 0.41 0.42 0.40 0.50 0.55 0.55 0.67 0.99 1.23 1.26 1.54 2.02 2.51 2.56 2.33 2.45 2.68 3.37 3.88 4.50 5.31 5.68 6.10 5.51 4.57 4.84 4.49
0.46 0.58 0.58 0.42 0.40 0.34 0.35 0.41 0.45 0.52 0.57 0.79 1.06 1.51 1.89 2.18 2.32 2.51 2.91 3.30 3.28 3.39 3.67 4.11 4.53 4.40 4.84 4.79 4.54 3.76 3.20 3.07
0.64 0.99 0.99 0.73 0.63 0.54 0.52 0.62 0.68 0.78 0.99 1.17 1.55 2.08 2.16 2.61 2.84 2.78 2.99 3.43 3.41 3.04 2.67 2.97 3.20 3.44 3.86 3.63 3.35 3.54 3.51 3.26
0.61 0.58 0.83 1.23 1.14 0.78 0.66 0.74 1.00 1.56 2.04 2.36 2.38 2.70 2.95 2.81 2.97 2.84 2.50 3.45 3.61 3.32 3.26 2.91 3.37 3.21 2.86 2.75 2.67 2.56 2.78 2.74
1.17 1.06 0.84 0.70 1.04 1.16 0.91 1.04 1.81 2.39 2.52 2.73 2.45 2.74 2.80 3.01 2.81 2.66 2.49 2.32 2.90 2.90 2.98 2.91 2.35 2.78 2.53 2.33 2.37 2.49 2.31 2.53
1.15 1.19 1.35 1.36 0.95 1.14 1.20 1.22 1.85 2.15 1.65 1.65 1.96 2.07 1.92 1.90 1.76 1.92 2.09 2.09 1.97 1.90 2.07 2.19 2.09 1.72 1.83 1.70 1.62 1.50 1.60 1.52
0.99 1.52 1.16 1.05 1.17 1.11 1.04 1.28 1.42 1.69 1.62 1.51 1.56 1.84 1.94 1.48 1.31 1.33 1.71 1.67 1.72 1.93 1.99 2.09 2.34 2.17 1.99 1.95 1.90 1.59 1.51 1.42
0.72 0.97 1.45 0.86 0.71 0.78 0.81 1.04 1.24 1.21 1.33 1.31 1.33 1.26 1.29 1.30 1.29 1.14 1.19 1.41 1.56 1.70 1.96 2.40 2.67 2.82 2.75 2.19 1.85 1.72 1.60 1.36
0.48 0.49 1.08 1.08 0.82 0.79 0.72 0.91 1.06 1.02 1.16 1.26 1.14 1.05 1.02 1.08 1.03 0.96 0.94 1.10 1.26 1.50 1.70 1.73 1.82 2.10 2.58 2.18 1.93 1.45 1.31 1.35
0.54 0.63 0.91 1.11 0.75 0.63 0.62 0.70 0.97 0.96 0.94 1.02 1.08 0.97 0.92 0.96 0.88 0.87 0.84 0.86 0.89 0.83 0.82 0.84 0.86 1.01 1.46 1.50 1.67 1.43 1.47 1.49

GFSFLT1_prec_precacc_291.txt.gz
Total_Precipitation_Accumulation
0.00 0.00 0.02 0.03 0.03 0.26 0.74 0.92 1.16 1.32 1.19 1.12 1.00 1.08 1.04 1.00 0.99 1.20 1.60 1.59 1.54 1.76 1.76 1.38 1.63 1.93 1.68 1.42 1.26 1.29 1.21 1.13
0.00 0.01 0.02 0.04 0.10 0.40 0.74 0.90 1.20 1.16 0.66 0.54 0.58 0.60 0.51 0.67 0.71 0.98 1.28 1.58 1.44 1.25 1.10 1.08 1.21 1.25 1.29 1.57 1.95 2.11 1.83 1.77
0.01 0.03 0.06 0.12 0.24 0.52 0.62 0.49 0.35 0.21 0.18 0.29 0.42 0.52 0.55 0.51 0.61 0.81 0.91 1.42 1.43 1.09 0.98 0.94 1.15 1.24 1.14 1.07 1.32 1.49 1.39 1.80
0.02 0.06 0.13 0.17 0.15 0.16 0.14 0.11 0.09 0.13 0.16 0.38 0.61 0.92 0.85 0.71 0.63 0.63 0.78 1.16 1.57 1.54 1.29 1.06 1.09 1.58 1.72 1.55 1.55 1.75 1.52 1.72
0.03 0.02 0.02 0.01 0.03 0.14 0.15 0.15 0.17 0.26 0.30 0.40 0.55 0.54 0.43 0.28 0.31 0.43 0.54 1.13 1.70 1.51 1.76 1.89 1.72 1.51 1.62 1.97 2.16 2.08 2.37 2.17
0.00 0.00 0.01 0.06 0.09 0.16 0.18 0.17 0.21 0.32 0.38 0.43 0.76 0.84 0.87 0.88 1.03 1.18 1.25 1.48 1.94 2.09 2.14 2.74 2.62 2.37 2.00 2.38 3.18 3.63 3.57 4.03
0.01 0.03 0.07 0.09 0.13 0.18 0.15 0.27 0.43 0.74 0.99 1.16 1.32 1.56 1.62 1.60 1.59 1.61 1.76 1.94 2.40 2.80 2.94 2.84 3.34 3.39 3.11 2.93 3.36 4.21 4.62 4.41
0.09 0.10 0.11 0.15 0.15 0.18 0.42 0.90 1.26 1.28 1.28 1.23 1.20 1.31 1.40 1.07 0.90 0.93 1.04 1.45 1.59 1.84 2.09 2.24 2.47 2.80 2.86 3.40 3.85 3.68 3.66 4.09
0.18 0.21 0.22 0.24 0.25 0.41 0.91 0.94 0.83 0.74 0.80 0.88 1.05 1.06 1.19 1.05 0.96 1.31 1.28 1.48 1.62 2.06 2.31 2.66 2.74 3.30 3.79 3.67 3.72 4.15 4.56 4.64
0.34 0.31 0.30 0.34 0.37 0.41 0.42 0.40 0.50 0.55 0.55 0.67 1.00 1.23 1.26 1.54 2.02 2.53 2.59 2.38 2.51 2.74 3.43 3.93 4.51 5.31 5.72 6.17 5.72 4.89 5.29 5.08
0.46 0.58 0.58 0.42 0.40 0.34 0.35 0.41 0.45 0.52 0.57 0.80 1.06 1.52 1.90 2.18 2.33 2.53 2.96 3.38 3.37 3.49 3.77 4.15 4.54 4.42 4.85 4.85 4.82 4.24 3.64 3.71
0.64 0.99 0.99 0.73 0.63 0.54 0.52 0.62 0.68 0.78 0.99 1.17 1.55 2.09 2.17 2.62 2.85 2.83 3.14 3.62 3.66 3.27 2.85 3.10 3.27 3.45 3.87 3.66 3.46 3.74 3.73 3.60
0.61 0.58 0.83 1.23 1.14 0.78 0.66 0.74 1.00 1.56 2.04 2.37 2.38 2.71 2.96 2.82 3.00 2.92 2.66 3.63 3.84 3.57 3.49 3.06 3.44 3.23 2.87 2.77 2.72 2.75 3.00 2.96
1.17 1.07 0.85 0.71 1.05 1.18 0.92 1.04 1.82 2.39 2.52 2.74 2.45 2.74 2.80 3.04 2.88 2.76 2.62 2.48 3.08 3.08 3.14 3.04 2.44 2.81 2.54 2.35 2.40 2.60 2.49 2.76
1.15 1.20 1.36 1.41 1.05 1.20 1.23 1.23 1.85 2.16 1.65 1.65 1.97 2.08 1.94 1.95 1.84 2.02 2.21 2.24 2.09 1.98 2.13 2.27 2.15 1.73 1.84 1.71 1.64 1.54 1.68 1.64
1.00 1.54 1.24 1.23 1.29 1.14 1.10 1.30 1.42 1.69 1.63 1.52 1.57 1.86 1.97 1.52 1.37 1.39 1.76 1.72 1.79 1.99 2.02 2.11 2.36 2.18 2.00 1.97 1.92 1.63 1.56 1.49
0.73 1.03 1.58 0.95 0.77 0.92 0.88 1.04 1.25 1.21 1.33 1.32 1.34 1.27 1.31 1.34 1.33 1.17 1.21 1.43 1.58 1.73 1.98 2.41 2.68 2.82 2.76 2.19 1.87 1.74 1.60 1.36
0.50 0.57 1.25 1.21 0.95 0.89 0.74 0.91 1.07 1.02 1.17 1.27 1.15 1.06 1.04 1.11 1.07 0.98 0.94 1.10 1.26 1.51 1.70 1.73 1.82 2.10 2.58 2.18 1.94 1.45 1.31 1.35
0.58 0.72 1.08 1.21 0.84 0.69 0.62 0.70 0.97 0.97 0.95 1.03 1.09 0.99 0.93 0.98 0.89 0.88 0.85 0.86 0.89 0.83 0.82 0.84 0.86 1.01 1.46 1.50 1.67 1.43 1.47 1.49